This is the latest recevied weather packets stored in our database for station/object W4ZHA. If no packets are shown the sender has not sent any weather packets the latest 10 day(s).
| Time | Temp. | Humidity | Pressure | Rain* | Wind** | Luminosity | Snow |
|---|---|---|---|---|---|---|---|
| 1777832305 | 18.89° C | 52% | 1020.3 hPa | 0 mm | - | 479 W/m² | - |
| 1777832002 | 16.67° C | 52% | 1020.6 hPa | 0 mm | - | 474 W/m² | - |
| 1777831699 | 17.22° C | 51% | 1020.6 hPa | 0 mm | - | 477 W/m² | - |
| 1777831397 | 17.78° C | 52% | 1020.6 hPa | 0 mm | - | 478 W/m² | - |
| 1777831093 | 17.22° C | 51% | 1020.6 hPa | 0 mm | - | 474 W/m² | - |
| 1777830791 | 17.78° C | 50% | 1021 hPa | 0 mm | - | 476 W/m² | - |
| 1777830486 | 16.67° C | 52% | 1021 hPa | 0 mm | - | 477 W/m² | - |
| 1777830185 | 17.22° C | 50% | 1021 hPa | 0 mm | - | 478 W/m² | - |
| 1777829880 | 18.33° C | 52% | 1021 hPa | 0 mm | - | 477 W/m² | - |
| 1777829576 | 18.33° C | 52% | 1021.3 hPa | 0 mm | - | 479 W/m² | - |
| 1777829273 | 18.89° C | 50% | 1021.3 hPa | 0 mm | - | 471 W/m² | - |
| 1777828970 | 17.22° C | 51% | 1021.3 hPa | 0 mm | - | 467 W/m² | - |
| 1777828667 | 18.33° C | 52% | 1021.3 hPa | 0 mm | - | 461 W/m² | - |
| 1777828364 | 16.67° C | 53% | 1021.8 hPa | 0 mm | - | 458 W/m² | - |
| 1777828061 | 15.56° C | 55% | 1021.3 hPa | 0 mm | - | 452 W/m² | - |
| 1777827757 | 15.56° C | 55% | 1021.3 hPa | 0 mm | - | 450 W/m² | - |
| 1777827455 | 16.11° C | 54% | 1021.8 hPa | 0 mm | - | 448 W/m² | - |
| 1777827152 | 15.56° C | 55% | 1021.8 hPa | 0 mm | - | 445 W/m² | - |
| 1777826847 | 15.56° C | 55% | 1022.1 hPa | 0 mm | - | 442 W/m² | - |
| 1777826546 | 15.56° C | 56% | 1022.1 hPa | 0 mm | - | 434 W/m² | - |
| 1777826241 | 15.56° C | 55% | 1022.1 hPa | 0 mm | - | 433 W/m² | - |
| 1777825940 | 15.56° C | 56% | 1022.1 hPa | 0 mm | - | 432 W/m² | - |
| 1777825636 | 15° C | 56% | 1022.1 hPa | 0 mm | - | 428 W/m² | - |
| 1777825334 | 15° C | 55% | 1022.4 hPa | 0 mm | - | 423 W/m² | - |
| 1777825031 | 15.56° C | 55% | 1022.4 hPa | 0 mm | - | 424 W/m² | - |
* Rain latest hour (hover to see other rain measurements)
** Current wind speed in m/s (hover to see current wind gust speed)